Regional Weather Roundup
Issued by NWS

Home | Current Version | Previous Version | Graphics & Text | Print | Product List | Glossary Off
Versions: 1 2 3 4 5 6 7 8 9 10 11 12 13 14 15 16 17 18 19 20 21 22 23 24 25 26 27 28 29 30 31 32 33 34 35 36 37 38 39 40 41 42 43 44 45 46 47 48 49 50

000
ASUS43 KMKX 281121
RWRWI

WISCONSIN REGIONAL WEATHER ROUNDUP
NATIONAL WEATHER SERVICE MILWAUKEE/SULLIVAN WI
600 AM CDT SUN AUG 28 2016

NOTE: "FAIR" INDICATES FEW OR NO CLOUDS BELOW 12,000 FEET WITH NO
SIGNIFICANT WEATHER AND/OR OBSTRUCTIONS TO VISIBILITY.

WIZ001-002-006>008-014>016-023>028-281200-
NORTHWEST WISCONSIN

CITY           SKY/WX    TMP DP  RH WIND       PRES   REMARKS
SUPERIOR ARPT  CLOUDY    59  59 100 SW3       30.14R
ASHLAND        PTCLDY    58  57  97 SW3       30.15R
HAYWARD        CLOUDY    61  59  93 SW3       30.16R
SIREN          FOG       60  59  97 CALM      30.14S VSB 1/4
CUMBERLAND     FOG       57  55  94 CALM      30.15R VSB 1/4
RICE LAKE      FOG       59  58  96 CALM      30.16R VSB<1/4
CHETEK         NOT AVBL
LADYSMITH      FOG       60  59  97 CALM      30.18R VSB<1/4
EAU CLAIRE     FOG       62  62 100 E3        30.14R VSB 1
MENOMONIE      FOG       61  61 100 E3        30.15R VSB 1/4
NEW RICHMOND   FOG       59  59 100 E3        30.14S VSB 1/2
OSCEOLA        FOG       61  61 100 CALM      30.16R VSB 1/4
$$

WIZ003>005-009-010-017-018-281200-
NORTH CENTRAL WISCONSIN

CITY           SKY/WX    TMP DP  RH WIND       PRES   REMARKS
MANITOWISH WTR NOT AVBL
ARBOR VITAE    CLOUDY    62  60  94 NW3       30.17R
WOODRUFF       CLOUDY    62  60  94 NW3       30.17R
RHINELANDER    MOCLDY    61  61 100 NW3       30.17R
EAGLE RIVER    CLOUDY    60  60 100 CALM      30.16R
LAND O LAKES   CLOUDY    62  60  95 CALM      30.17R
PHILLIPS       CLOUDY    59  59 100 CALM      30.16S
TOMAHAWK       CLOUDY    58  58  97 CALM      30.17R FOG
MEDFORD        CLOUDY    60  60 100 CALM      30.17R FOG
MERRILL        CLOUDY    61  61 100 CALM      30.18R
$$

WIZ029-030-035-036-043>047-281200-
CENTRAL WISCONSIN

CITY           SKY/WX    TMP DP  RH WIND       PRES   REMARKS
WAUSAU         CLEAR     61  60  97 NW5       30.15S
MOSINEE        FOG       55  55 100 CALM      30.18R VSB 1/4
MARSHFIELD     CLOUDY    63  61  93 NW3       30.17R
STEVENS POINT  PTCLDY    59  59 100 CALM      30.17R
WAUPACA        MOCLDY    63  62  97 CALM      30.16R FOG
WAUTOMA        CLOUDY    65  65 100 CALM        N/A  FOG
WISC RAPIDS    CLOUDY    64  64 100 W5        30.17R
CAMP DOUGLAS   CLOUDY    66  66 100 W2        30.15R
$$

WIZ011>013-019>022-031-037>040-048>050-281200-
NORTHEAST WISCONSIN

CITY           SKY/WX    TMP DP  RH WIND       PRES   REMARKS
ANTIGO         CLOUDY    60  60 100 W6        30.17R
SHAWANO        FOG       62  60  94 CALM      30.16R VSB 3/4
OCONTO         NOT AVBL
STURGEON BAY   CLOUDY    64  63  96 CALM      30.16R
GREEN BAY      FOG       60  60 100 MISG      30.16R VSB 1
MANITOWOC      CLOUDY    65  63  93 W6        30.18R
APPLETON       FOG       61  61 100 SW3       30.16R VSB 1
CLINTONVILLE   FOG       61  61 100 CALM      30.16R VSB 3/4
OSHKOSH        CLOUDY    64  62  93 CALM      30.16R
$$

WIZ032>034-041-042-053>061-281200-
SOUTHWEST WISCONSIN

CITY           SKY/WX    TMP DP  RH WIND       PRES   REMARKS
LA CROSSE      FOG       67  67 100 CALM      30.14R VSB 3/4
SPARTA         FOG       64  64 100 CALM      30.16R VSB 3/4
VIROQUA        CLOUDY    61  61 100 E3        30.17R VSB 1/4
BOSCOBEL       FOG       63  63 100 E5        30.14R VSB 1/4
PRAIRIE DU CHI FOG       62  61  96 CALM      30.12S VSB 3/4
PLATTEVILLE      N/A     63  63 100 E3        30.15R VSB 1/2
$$

WIZ056-057-062-063-064-067-068-281200-
SOUTH CENTRAL WISCONSIN

CITY           SKY/WX    TMP DP  RH WIND       PRES   REMARKS
REEDSBURG      NOT AVBL
BARABOO/DELLS  FOG       62  60  95 CALM      30.16R VSB<1/4
LONE ROCK      FOG       63  62  97 E3        30.16R VSB 1/4
MINERAL POINT  FOG       63  63 100 SE3       30.15S VSB 1/2
MADISON        FOG       64  63  96 N3        30.15R VSB 1/8
MIDDLETON      CLOUDY    59  59 100 CALM      30.17R VSB 1/2
WATERTOWN      FOG       63  63 100 CALM      30.16R VSB 1/4
MONROE         FOG       64  63  94 E3        30.15S VSB 3/4
JANESVILLE     CLEAR     64  64 100 CALM      30.15S FOG
$$

WIZ051-052-058>065-066-070>072-281200-
SOUTHEAST WISCONSIN

CITY           SKY/WX    TMP DP  RH WIND       PRES   REMARKS
MILWAUKEE      PTCLDY    68  65  90 W5        30.16R
WAUKESHA       FOG       61  61 100 CALM      30.17R VSB 1/2
MILWAUKEE/TIMM FOG       63  61  94 CALM      30.18R VSB 1
RACINE         PTCLDY    65  64  97 CALM      30.17S FOG
BURLINGTON     FOG       62  62  99 CALM      30.16R VSB 1/4
KENOSHA        MOCLDY    66  65  96 CALM      30.16R FOG
FOND DU LAC    CLOUDY    64  63  96 NW6       30.17R FOG
SHEBOYGAN      CLOUDY    65  64  97 NW5       30.18R FOG
WEST BEND      FOG       63  61  94 CALM      30.17R VSB 1/4
JUNEAU         FOG       63  63  99 CALM      30.18R VSB<1/4
$$

LSZ147-162-281200-
LAKE SUPERIOR

STATION/POSITION TIME  TEMP    WIND        PRES    WAVE
                       AIR SEA DIR/SP/G            HT/PER
                 (UTC) (F)     (DEG/KT/KT) (MB)    (FT/S)
W MID LAKE BUOY  1050   64 67  270/ 10/ 10 1019.4R   1/ 3
DEVILS ISLAND    1100   62     200/  6/  7 1020.6R
PORT WING        1040   58     170/  3/  3 1020.7R
SAXON HARBOR     1000   63     230/  2/  5 1020.0R
$$

LMZ867-665-643>646-281200-
LAKE MICHIGAN

STATION/POSITION TIME  TEMP    WIND        PRES    WAVE
                       AIR SEA DIR/SP/G            HT/PER
                 (UTC) (F)     (DEG/KT/KT) (MB)    (FT/S)
CHAMBERS ISLAND  1000   65     220/  6/  9 1019.6R
S GREEN BAY BUOY 1000   66 71  270/  6/  8 1020.0
N MID LAKE BUOY  1050   67 70  270/ 10/ 12 1019.5R   1/ 4
NORTHPORT PIER   1000   65     230/  2/  4 1019.6R
SISTER BAY       1022   67     280/ 12/ 14   N/A
KEWAUNEE LAKESHO 1000   63     310/  2/  3 1020.3R
SHEBOYGAN LAKESH 1100   63     340/  4/  6 1021.3R
PORT WASHINGTON  1040   63     300/  5/  7 1021.7R
ATWATER BUOY     1100   64     350/  4/  4   N/A
MILWAUKEE LAKESH 1010   64     170/  1/  2   N/A
S MID LAKE BUOY  1050   72 74   10/  6/  8 1020.2R   1
KENOSHA   LAKESH 1100   66      CALM  /  2 1020.7S
$$

TC  - TEMPERATURE IN CELSIUS
VSB - VISIBILITY IN STATUTE MILES
WCI - WIND CHILL INDEX
HX  - HEAT INDEX





USA.gov is the U.S. government's official web portal to all federal, state and local government web resources and services.